Location: Taipo
(41.0000°S, 175.9500°E)
Time: 20:38:46
(UTC+00:00)

CZ-6A DEB - Visible Passes

Search period start: 19 September 2024 00:00
Search period end: 29 September 2024 00:00
Orbit: 830 x 1398 km, 99.1° (Epoch: 18 September)

Date Brightness Start Highest point End Pass type
(mag) Time Alt. Az. Time Alt. Az. Time Alt. Az.
20 Sep ? 13:02:52 12° S 13:02:52 12° S 13:03:24 10° S visible
21 Sep ? 12:21:44 12° SSE 12:21:44 12° SSE 12:22:23 10° S visible
22 Sep ? 13:28:13 14° SSW 13:28:13 14° SSW 13:28:56 10° SSW visible
23 Sep ? 12:47:06 16° S 12:47:06 16° S 12:48:17 10° S visible
24 Sep ? 12:05:57 14° SSE 12:05:57 14° SSE 12:07:04 10° SSE visible
24 Sep ? 13:53:34 13° SSW 13:53:34 13° SSW 13:54:16 10° SSW visible
25 Sep ? 13:12:26 18° S 13:12:26 18° S 13:13:56 10° S visible
26 Sep ? 12:31:18 18° SSE 12:31:18 18° SSE 12:33:09 10° S visible
26 Sep ? 14:18:54 12° SSW 14:18:54 12° SSW 14:19:22 10° SSW visible
27 Sep ? 11:50:10 14° SSE 11:50:10 14° SSE 11:51:41 10° SSE visible
27 Sep ? 13:37:47 18° SSW 13:37:47 18° SSW 13:39:23 10° SSW visible
28 Sep ? 12:56:38 22° S 12:56:38 22° S 12:58:55 10° S visible
